Regional Weather Roundup
Issued by NWS Midland/Odessa, TX

Skip options and go directly to product.
Home | Oldest Version | Previous Version | Current Version | All | Text Only | Save Text | Print | Product List | Glossary On

Skip product version selection by date and time.   
230
ASUS44 KMAF 251510
RWRMAF
MIDLAND AREA WEATHER ROUNDUP
NATIONAL WEATHER SERVICE MIDLAND TX
1000 AM CDT MON MAY 25 2015

...IN SOUTHWEST TEXAS AND SOUTHEAST NEW MEXICO...

CITY           SKY/WX    TMP DP  RH WIND       PRES   REMARKS
ALPINE         SUNNY     72  29  19 W12G17    30.06R
ANDREWS        FAIR      61  53  76 CALM      29.92F
ARTESIA        SUNNY     70  36  28 CALM      29.92R
BIG SPRING     CLOUDY    56  54  94 N26G39    29.90F THUNDER
CARLSBAD       SUNNY     74  40  29 N9        29.90R
DRYDEN           N/A     79  64  60 SW10      29.86R
FORT STOCKTON  SUNNY     74  42  31 W14       29.92R
GUAD PASS      SUNNY     64  31  28 W23       30.00S
HOBBS          SUNNY     64  45  48 NE10      29.93R
MARFA          SUNNY     68  30  24 W22       30.05R
MIDLAND AIRPK  PTSUNNY   61  55  81 NE8       29.92S HAZE
MIDLAND INTL   MOSUNNY   62  54  74 NE21      29.91S
ODESSA           N/A    N/A N/A N/A MISG      29.92S
PECOS          SUNNY     73  43  33 CALM      29.90S
PRESIDIO       FAIR      78  29  16 W9G18     29.97R
SEMINOLE       CLOUDY    62  50  65 NE12G17   29.91R
SNYDER         LGT RAIN  55  54  95 W30G39    29.98R
WINK           SUNNY     72  51  47 E9        29.89R
$$
...OTHER STATIONS IN TEXAS...

CITY           SKY/WX    TMP DP  RH WIND       PRES   REMARKS
ABILENE        CLOUDY    71  65  81 SE28G33   29.77F
AMARILLO       CLOUDY    62  49  62 W8        29.87S
AUSTIN         CLOUDY    76  72  87 SE16      29.91R
BROWNSVILLE    CLOUDY    83  76  79 SE15G31   29.87R
CORPUS CHRISTI CLOUDY    82  75  79 SE24G31   29.88R
DALLAS FTW     PTSUNNY   73  70  90 S13       29.90F
DEL RIO        NOT AVBL
EL PASO        SUNNY     68  33  27 W12       29.98R
HOUSTON INT    PTSUNNY   81  73  76 S10       29.96F
LUBBOCK        TSTM      56  52  86 SE20      30.01R
SAN ANGELO     PTSUNNY   76  67  73 S15       29.84R
SAN ANTONIO    CLOUDY    77  71  82 SE17      29.90S
WACO           LGT RAIN  75  71  87 SE13      29.91S
WICHITA FALLS  NOT AVBL
$$
...OTHER LOCATIONS IN NEW MEXICO...

CITY           SKY/WX    TMP DP  RH WIND       PRES   REMARKS
ALAMAGORDO     SUNNY     63  32  31 CALM      29.98F
ALBUQUERQUE    MOSUNNY   55  43  63 S6        30.02R
CANNON AFB     CLOUDY    59  46  61 W9        29.93R
CLOVIS         CLOUDY    57  45  62 W8        29.91S
HOLLOMAN AFB   SUNNY     66  37  34 NE6       29.96S
ROSWELL        SUNNY     69  42  37 E8        29.90R
RUIDOSO        SUNNY     55  32  41 NW14G26   30.04F
SANTA FE       SUNNY     57  38  48 N9        30.01R
TRUTH OR CONSE SUNNY     64  35  34 W12       30.00S
TUCUMCARI      MOSUNNY   63  46  54 S9        29.88R
$$

USA.gov is the U.S. government's official web portal to all federal, state and local government web resources and services.